| time (UTC) | temp F | wind direction | speed knots | gust knots | rain 1hr in | rain 24hr in | rain mn in | humidity % | barometer mb |
| 20260901104550 | 68 | 139 | 0.0 | 0.0 | 0.00 | 0.25 | 0.00 | 99 | 1017.8 |
| 20260901103045 | 68 | 139 | 0.0 | 0.0 | 0.00 | 0.25 | 0.00 | 99 | 1017.7 |
| 20260901101545 | 69 | 139 | 0.0 | 0.0 | 0.00 | 0.25 | 0.00 | 99 | 1017.7 |
| 20260901100051 | 69 | 139 | 0.0 | 0.0 | 0.00 | 0.25 | 0.00 | 99 | 1017.6 |
| 20260901094548 | 69 | 139 | 0.0 | 0.0 | 0.00 | 0.25 | 0.00 | 99 | 1017.6 |
| 20260901093040 | 69 | 139 | 0.0 | 0.0 | 0.00 | 0.25 | 0.00 | 99 | 1017.6 |
| 20260901091543 | 69 | 139 | 0.0 | 0.0 | 0.00 | 0.25 | 0.00 | 99 | 1017.5 |
| 20260901090051 | 69 | 139 | 0.0 | 0.0 | 0.00 | 0.25 | 0.00 | 98 | 1017.4 |
| 20260901084538 | 69 | 139 | 0.0 | 0.0 | 0.00 | 0.25 | 0.00 | 99 | 1017.4 |
| 20260901083037 | 69 | 139 | 0.0 | 0.0 | 0.00 | 0.25 | 0.00 | 99 | 1017.2 |
| 20260901081535 | 69 | 139 | 0.0 | 0.0 | 0.00 | 0.25 | 0.00 | 98 | 1017.4 |
| 20260901080035 | 69 | 139 | 0.0 | 0.0 | 0.00 | 0.25 | 0.00 | 98 | 1017.3 |
| 20260901074533 | 69 | 139 | 0.0 | 0.0 | 0.00 | 0.25 | 0.00 | 98 | 1017.4 |
| 20260901073033 | 69 | 139 | 0.0 | 0.0 | 0.00 | 0.25 | 0.00 | 98 | 1017.5 |
| 20260901071532 | 70 | 139 | 0.0 | 0.0 | 0.00 | 0.25 | 0.00 | 98 | 1017.6 |
| 20260901070044 | 70 | 146 | 0.0 | 0.0 | 0.00 | 0.25 | 0.00 | 98 | 1017.7 |
| 20260901064530 | 69 | 146 | 0.0 | 0.0 | 0.00 | 0.25 | 0.00 | 98 | 1017.7 |
| 20260901063033 | 70 | 146 | 0.0 | 0.0 | 0.00 | 0.25 | 0.00 | 98 | 1017.6 |
| 20260901061527 | 70 | 146 | 0.0 | 0.0 | 0.00 | 0.25 | 0.00 | 98 | 1017.6 |
| 20260901060034 | 70 | 146 | 0.0 | 0.0 | 0.00 | 0.25 | 0.00 | 98 | 1017.7 |
| 20260901054526 | 70 | 146 | 0.0 | 0.0 | 0.00 | 0.25 | 0.00 | 98 | 1017.7 |
| 20260901053024 | 70 | 146 | 0.0 | 0.0 | 0.00 | 0.25 | 0.00 | 97 | 1017.9 |
| 20260901051523 | 70 | 146 | 0.0 | 0.0 | 0.00 | 0.25 | 0.00 | 97 | 1017.8 |
| 20260901050020 | 70 | 146 | 0.0 | 0.0 | 0.00 | 0.25 | 0.00 | 97 | 1017.6 |
| 20260901044520 | 70 | 146 | 0.0 | 0.0 | 0.00 | 0.25 | 0.00 | 97 | 1017.5 |
| 20260901043018 | 71 | 146 | 0.0 | 0.0 | 0.00 | 0.25 | 0.00 | 97 | 1017.6 |
| 20260901041516 | 70 | 146 | 0.0 | 0.0 | 0.00 | 0.25 | 0.00 | 97 | 1017.6 |
| 20260901040017 | 71 | 146 | 0.0 | 0.0 | 0.00 | 0.25 | 0.25 | 96 | 1017.6 |
| 20260901034513 | 71 | 146 | 0.0 | 0.0 | 0.00 | 0.25 | 0.25 | 96 | 1017.4 |
| 20260901033029 | 71 | 146 | 0.0 | 0.0 | 0.00 | 0.25 | 0.25 | 96 | 1017.4 |
| 20260901031520 | 72 | 146 | 0.0 | 0.0 | 0.00 | 0.25 | 0.25 | 96 | 1017.3 |
| 20260901030012 | 72 | 146 | 0.0 | 0.0 | 0.00 | 0.25 | 0.25 | 96 | 1017.3 |
| 20260901024512 | 72 | 146 | 0.0 | 0.0 | 0.00 | 0.25 | 0.25 | 96 | 1017.3 |
| 20260901023011 | 73 | 146 | 0.0 | 0.0 | 0.00 | 0.25 | 0.25 | 95 | 1017.4 |
| 20260901021514 | 73 | 146 | 0.0 | 0.0 | 0.00 | 0.25 | 0.25 | 95 | 1017.2 |
| 20260901020011 | 73 | 146 | 0.0 | 0.0 | 0.00 | 0.25 | 0.25 | 94 | 1017.1 |
| 20260901014510 | 74 | 146 | 0.0 | 0.0 | 0.00 | 0.25 | 0.25 | 94 | 1017.1 |
| 20260901013010 | 74 | 146 | 0.0 | 0.0 | 0.00 | 0.25 | 0.25 | 94 | 1016.9 |
| 20260901011512 | 74 | 146 | 0.0 | 0.0 | 0.00 | 0.25 | 0.25 | 93 | 1016.6 |
| 20260901010025 | 75 | 146 | 0.0 | 0.0 | 0.00 | 0.25 | 0.25 | 93 | 1016.5 |
| 20260901004508 | 76 | 146 | 0.0 | 0.0 | 0.00 | 0.25 | 0.25 | 92 | 1016.3 |
| 20260901003007 | 77 | 146 | 0.0 | 0.0 | 0.00 | 0.25 | 0.25 | 93 | 1016.5 |
| 20260901001506 | 78 | 146 | 0.0 | 0.0 | 0.00 | 0.25 | 0.25 | 92 | 1016.4 |
| 20260901000005 | 79 | 146 | 0.0 | 0.0 | 0.00 | 0.25 | 0.25 | 90 | 1016.4 |
| 20260831234504 | 81 | 146 | 0.0 | 0.0 | 0.00 | 0.25 | 0.25 | 90 | 1016.4 |
| 20260831233004 | 81 | 146 | 0.0 | 0.0 | 0.00 | 0.25 | 0.25 | 90 | 1016.5 |
| 20260831231502 | 81 | 146 | 0.0 | 0.0 | 0.00 | 0.25 | 0.25 | 89 | 1016.6 |
| 20260831230002 | 81 | 146 | 0.0 | 0.0 | 0.00 | 0.25 | 0.25 | 90 | 1016.6 |
| 20260831224501 | 81 | 146 | 0.0 | 0.0 | 0.00 | 0.25 | 0.25 | 91 | 1016.7 |
| 20260831223109 | 81 | 146 | 0.0 | 0.0 | 0.00 | 0.25 | 0.25 | 91 | 1016.8 |
| 20260831221604 | 80 | 146 | 0.0 | 0.0 | 0.00 | 0.25 | 0.25 | 89 | 1016.8 |
| 20260831220057 | 81 | 146 | 0.0 | 0.0 | 0.00 | 0.25 | 0.25 | 91 | 1016.9 |
| 20260831214557 | 80 | 146 | 0.0 | 0.0 | 0.00 | 0.25 | 0.25 | 90 | 1017.0 |
| 20260831213058 | 80 | 146 | 0.0 | 0.0 | 0.00 | 0.25 | 0.25 | 90 | 1017.1 |
| 20260831211607 | 81 | 146 | 0.0 | 0.0 | 0.00 | 0.25 | 0.25 | 91 | 1017.2 |
| 20260831210053 | 81 | 146 | 0.0 | 0.0 | 0.00 | 0.25 | 0.25 | 91 | 1017.2 |
| 20260831204552 | 81 | 146 | 0.0 | 0.0 | 0.00 | 0.25 | 0.25 | 92 | 1017.4 |
| 20260831203055 | 81 | 146 | 0.0 | 0.0 | 0.00 | 0.25 | 0.25 | 93 | 1017.5 |
| 20260831201558 | 81 | 146 | 0.0 | 0.0 | 0.00 | 0.25 | 0.25 | 94 | 1017.5 |
| 20260831200048 | 80 | 146 | 0.0 | 0.0 | 0.00 | 0.25 | 0.25 | 95 | 1017.8 |
| 20260831194634 | 79 | 146 | 0.0 | 0.0 | 0.00 | 0.25 | 0.25 | 94 | 1018.1 |
| 20260831193047 | 78 | 146 | 0.0 | 0.0 | 0.00 | 0.25 | 0.25 | 95 | 1018.2 |
| 20260831191547 | 77 | 146 | 0.0 | 0.9 | 0.00 | 0.25 | 0.25 | 95 | 1018.3 |
| 20260831190057 | 77 | 146 | 0.0 | 0.0 | 0.00 | 0.25 | 0.25 | 94 | 1018.4 |
| 20260831184555 | 76 | 146 | 0.0 | 0.0 | 0.13 | 0.25 | 0.25 | 94 | 1018.4 |
| 20260831183046 | 76 | 146 | 0.0 | 0.0 | 0.25 | 0.25 | 0.25 | 93 | 1018.6 |
| 20260831181549 | 76 | 147 | 0.0 | 1.7 | 0.25 | 0.25 | 0.25 | 89 | 1019.0 |
| 20260831180044 | 78 | 122 | 0.0 | 1.7 | 0.25 | 0.25 | 0.25 | 82 | 1019.1 |
| 20260831174544 | 86 | 136 | 0.9 | 3.5 | 0.09 | 0.09 | 0.09 | 69 | 1019.2 |
| 20260831173042 | 91 | 157 | 0.0 | 2.6 | 0.00 | 0.00 | 0.00 | 58 | 1018.8 |
| 20260831171544 | 91 | 90 | 1.7 | 4.3 | 0.00 | 0.00 | 0.00 | 60 | 1018.8 |
| 20260831170036 | 90 | 79 | 0.9 | 3.5 | 0.00 | 0.00 | 0.00 | 63 | 1019.0 |
| 20260831164635 | 90 | 353 | 1.7 | 3.5 | 0.00 | 0.00 | 0.00 | 66 | 1019.1 |
| 20260831163038 | 90 | 63 | 0.9 | 3.5 | 0.00 | 0.00 | 0.00 | 67 | 1019.2 |
| 20260831161533 | 89 | 271 | 0.9 | 4.3 | 0.00 | 0.00 | 0.00 | 68 | 1019.4 |
| 20260831160028 | 89 | 61 | 1.7 | 3.5 | 0.00 | 0.00 | 0.00 | 66 | 1019.5 |
| 20260831154533 | 87 | 48 | 0.9 | 3.5 | 0.00 | 0.00 | 0.00 | 70 | 1019.7 |
| 20260831153034 | 87 | 288 | 0.9 | 5.2 | 0.00 | 0.00 | 0.00 | 72 | 1019.7 |
| 20260831151522 | 87 | 289 | 0.0 | 2.6 | 0.00 | 0.00 | 0.00 | 70 | 1019.7 |
| 20260831150018 | 86 | 19 | 0.0 | 4.3 | 0.00 | 0.00 | 0.00 | 70 | 1019.6 |
| 20260831144515 | 84 | 353 | 0.0 | 0.9 | 0.00 | 0.00 | 0.00 | 74 | 1019.6 |
| 20260831143013 | 84 | 214 | 0.0 | 2.6 | 0.00 | 0.00 | 0.00 | 76 | 1019.7 |
| 20260831141512 | 83 | 184 | 0.0 | 0.9 | 0.00 | 0.00 | 0.00 | 77 | 1019.6 |
| 20260831140007 | 81 | 210 | 0.0 | 0.0 | 0.00 | 0.00 | 0.00 | 80 | 1019.7 |
| 20260831134503 | 80 | 269 | 0.0 | 0.9 | 0.00 | 0.00 | 0.00 | 83 | 1019.6 |
| 20260831133103 | 79 | 248 | 0.0 | 1.7 | 0.00 | 0.00 | 0.00 | 86 | 1019.6 |
| 20260831131603 | 78 | 136 | 0.0 | 0.0 | 0.00 | 0.00 | 0.00 | 91 | 1019.7 |
| 20260831130053 | 77 | 150 | 0.0 | 0.0 | 0.00 | 0.00 | 0.00 | 97 | 1019.5 |
| 20260831124555 | 74 | 151 | 0.0 | 0.0 | 0.00 | 0.00 | 0.00 | 97 | 1019.5 |
| 20260831123052 | 73 | 150 | 0.0 | 0.0 | 0.00 | 0.00 | 0.00 | 97 | 1019.5 |
| 20260831121547 | 71 | 151 | 0.0 | 0.0 | 0.00 | 0.00 | 0.00 | 99 | 1019.3 |
| 20260831120042 | 68 | 150 | 0.0 | 0.0 | 0.00 | 0.00 | 0.00 | 99 | 1019.2 |
| 20260831114550 | 68 | 150 | 0.0 | 0.0 | 0.00 | 0.00 | 0.00 | 99 | 1019.0 |
| 20260831113038 | 68 | 150 | 0.0 | 0.0 | 0.00 | 0.00 | 0.00 | 98 | 1018.8 |
| 20260831111534 | 68 | 150 | 0.0 | 0.0 | 0.00 | 0.00 | 0.00 | 98 | 1018.5 |
| 20260831110031 | 68 | 150 | 0.0 | 0.0 | 0.00 | 0.00 | 0.00 | 98 | 1018.5 |